This is the latest recevied weather packets stored in our database for station/object KN6CRX. If no packets are shown the sender has not sent any weather packets the latest 10 day(s).
| Time | Temp. | Humidity | Pressure | Rain* | Wind** | Luminosity | Snow |
|---|---|---|---|---|---|---|---|
| 1787634621 | 18.89° C | 60% | 1024.9 hPa | 0 mm | - | 0 W/m² | - |
| 1787634317 | 18.33° C | 62% | 1025.2 hPa | 0 mm | - | 0 W/m² | - |
| 1787634013 | 18.33° C | 65% | 1025.2 hPa | 0 mm | - | 0 W/m² | - |
| 1787633708 | 18.33° C | 66% | 1025.1 hPa | 0 mm | - | 0 W/m² | - |
| 1787633405 | 18.33° C | 66% | 1025.1 hPa | 0 mm | - | 0 W/m² | - |
| 1787633100 | 18.33° C | 66% | 1025.2 hPa | 0 mm | - | 0 W/m² | - |
| 1787632796 | 18.33° C | 66% | 1025.2 hPa | 0 mm | - | 0 W/m² | - |
| 1787632491 | 18.33° C | 66% | 1025.1 hPa | 0 mm | - | 0 W/m² | - |
| 1787632191 | 18.33° C | 65% | 1024.8 hPa | 0 mm | - | 0 W/m² | - |
| 1787631886 | 18.33° C | 66% | 1024.6 hPa | 0 mm | - | 0 W/m² | - |
| 1787631583 | 18.33° C | 64% | 1024.4 hPa | 0 mm | - | 0 W/m² | - |
| 1787631279 | 18.33° C | 63% | 1024.1 hPa | 0 mm | - | 0 W/m² | - |
| 1787630979 | 18.89° C | 62% | 1023.9 hPa | 0 mm | - | 0 W/m² | - |
| 1787630674 | 18.89° C | 60% | 1023.7 hPa | 0 mm | - | 0 W/m² | - |
| 1787630373 | 19.44° C | 59% | 1023.8 hPa | 0 mm | - | 0 W/m² | - |
| 1787630069 | 19.44° C | 58% | 1023.9 hPa | 0 mm | - | 0 W/m² | - |
| 1787629766 | 20.56° C | 55% | 1023.7 hPa | 0 mm | - | 0 W/m² | - |
| 1787629465 | 20.56° C | 52% | 1023.6 hPa | 0 mm | - | 0 W/m² | - |
| 1787629162 | 20.56° C | 50% | 1023.3 hPa | 0 mm | - | 0 W/m² | - |
| 1787628862 | 20.56° C | 50% | 1023.2 hPa | 0 mm | - | 0 W/m² | - |
| 1787628557 | 20.56° C | 49% | 1023 hPa | 0 mm | - | 0 W/m² | - |
| 1787628257 | 20.56° C | 49% | 1023.1 hPa | 0 mm | - | 0 W/m² | - |
| 1787627953 | 21.11° C | 49% | 1023.3 hPa | 0 mm | - | 0 W/m² | - |
| 1787627648 | 20.56° C | 50% | 1023.1 hPa | 0 mm | - | 0 W/m² | - |
| 1787627343 | 20.56° C | 51% | 1022.9 hPa | 0 mm | - | 0 W/m² | - |
* Rain latest hour (hover to see other rain measurements)
** Current wind speed in m/s (hover to see current wind gust speed)